timestamp,wind_dir_avg,wind_spd_max_dir,wind_spd_avg,wind_spd_gust,battery_voltage,lat,long
2018-06-20 00:00:00+00:00,222.0,225.0,7.15,7.7,,47.59359,-54.27349
2018-06-20 00:10:00+00:00,220.0,219.0,7.5,8.51,,47.59359,-54.27349
2018-06-20 00:20:00+00:00,232.0,232.0,6.47,6.98,,47.59359,-54.27349
2018-06-20 00:30:00+00:00,230.0,228.0,6.48,7.22,,47.59359,-54.27349
2018-06-20 00:40:00+00:00,233.0,232.0,6.48,7.02,,47.59359,-54.27349
2018-06-20 00:50:00+00:00,232.0,233.0,5.36,5.98,,47.59359,-54.27349
2018-06-20 01:00:00+00:00,225.0,225.0,3.91,4.26,,47.59359,-54.27349
2018-06-20 01:10:00+00:00,233.0,231.0,4.77,5.2,,47.59359,-54.27349
2018-06-20 01:20:00+00:00,231.0,230.0,4.26,4.44,,47.59359,-54.27349
2018-06-20 01:30:00+00:00,236.0,235.0,3.98,4.36,,47.59359,-54.27349
2018-06-20 01:40:00+00:00,234.0,234.0,3.93,4.2,,47.59359,-54.27349
2018-06-20 01:50:00+00:00,223.0,225.0,4.36,4.69,,47.59359,-54.27349
2018-06-20 02:00:00+00:00,227.0,225.0,4.12,4.33,,47.59359,-54.27349
2018-06-20 02:10:00+00:00,230.0,230.0,4.28,4.56,,47.59359,-54.27349
2018-06-20 02:20:00+00:00,231.0,232.0,4.67,5.08,,47.59359,-54.27349
2018-06-20 02:30:00+00:00,236.0,237.0,4.9,5.29,,47.59359,-54.27349
2018-06-20 02:40:00+00:00,244.0,243.0,3.48,3.89,,47.59359,-54.27349
2018-06-20 02:50:00+00:00,241.0,243.0,4.21,4.45,,47.59359,-54.27349
2018-06-20 03:00:00+00:00,223.0,226.0,3.35,3.88,,47.59359,-54.27349
2018-06-20 03:10:00+00:00,216.0,218.0,4.2,4.77,,47.59359,-54.27349
2018-06-20 03:20:00+00:00,221.0,224.0,3.86,4.06,,47.59359,-54.27349
2018-06-20 03:30:00+00:00,224.0,223.0,4.5,4.75,,47.59359,-54.27349
2018-06-20 03:40:00+00:00,231.0,230.0,4.55,5.13,,47.59359,-54.27349
2018-06-20 03:50:00+00:00,231.0,232.0,4.19,4.5,,47.59359,-54.27349
2018-06-20 04:00:00+00:00,217.0,220.0,3.37,3.64,,47.59359,-54.27349
2018-06-20 04:10:00+00:00,187.0,190.0,2.26,2.44,,47.59359,-54.27349
2018-06-20 04:20:00+00:00,217.0,218.0,3.24,3.57,,47.59359,-54.27349
2018-06-20 04:30:00+00:00,219.0,220.0,3.62,3.91,,47.59359,-54.27349
2018-06-20 04:40:00+00:00,216.0,217.0,4.67,4.96,,47.59359,-54.27349
2018-06-20 04:50:00+00:00,219.0,217.0,3.75,4.21,,47.59359,-54.27349
2018-06-20 05:00:00+00:00,226.0,226.0,4.08,4.39,,47.59359,-54.27349
2018-06-20 05:10:00+00:00,227.0,228.0,5.22,5.59,,47.59359,-54.27349
2018-06-20 05:20:00+00:00,223.0,218.0,5.7,6.27,,47.59359,-54.27349
2018-06-20 05:30:00+00:00,229.0,229.0,4.36,4.73,,47.59359,-54.27349
2018-06-20 05:40:00+00:00,226.0,228.0,3.04,3.58,,47.59359,-54.27349
2018-06-20 05:50:00+00:00,238.0,236.0,2.81,3.11,,47.59359,-54.27349
2018-06-20 06:00:00+00:00,220.0,221.0,2.44,2.66,,47.59359,-54.27349
2018-06-20 06:10:00+00:00,239.0,241.0,3.1,3.53,,47.59359,-54.27349
2018-06-20 06:20:00+00:00,207.0,210.0,2.33,2.54,,47.59359,-54.27349
2018-06-20 06:30:00+00:00,220.0,223.0,1.81,1.91,,47.59359,-54.27349
2018-06-20 06:40:00+00:00,187.0,187.0,2.87,3.08,,47.59359,-54.27349
2018-06-20 06:50:00+00:00,187.0,188.0,3.7,3.95,,47.59359,-54.27349
2018-06-20 07:00:00+00:00,202.0,203.0,3.26,3.64,,47.59359,-54.27349
2018-06-20 07:10:00+00:00,235.0,239.0,4.0,4.41,,47.59359,-54.27349
2018-06-20 07:20:00+00:00,244.0,244.0,3.98,4.49,,47.59359,-54.27349
2018-06-20 07:30:00+00:00,251.0,252.0,3.54,3.73,,47.59359,-54.27349
2018-06-20 07:40:00+00:00,258.0,252.0,2.05,2.27,,47.59359,-54.27349
2018-06-20 07:50:00+00:00,211.0,212.0,1.43,1.71,,47.59359,-54.27349
2018-06-20 08:00:00+00:00,204.0,223.0,1.84,2.15,,47.59359,-54.27349
2018-06-20 08:10:00+00:00,229.0,230.0,2.61,2.82,,47.59359,-54.27349
2018-06-20 08:20:00+00:00,212.0,217.0,2.12,2.41,,47.59359,-54.27349
2018-06-20 08:30:00+00:00,187.0,192.0,2.17,2.35,,47.59359,-54.27349
2018-06-20 08:40:00+00:00,191.0,195.0,2.08,2.23,,47.59359,-54.27349
2018-06-20 08:50:00+00:00,215.0,214.0,2.31,2.37,,47.59359,-54.27349
2018-06-20 09:00:00+00:00,202.0,206.0,2.65,2.83,,47.59359,-54.27349
2018-06-20 09:10:00+00:00,208.0,208.0,2.29,2.47,,47.59359,-54.27349
2018-06-20 09:20:00+00:00,214.0,217.0,1.15,1.34,,47.59359,-54.27349
2018-06-20 09:30:00+00:00,231.0,230.0,1.48,1.56,,47.59359,-54.27349
2018-06-20 09:40:00+00:00,248.0,252.0,1.14,1.25,,47.59359,-54.27349
2018-06-20 09:50:00+00:00,217.0,220.0,1.5,1.62,,47.59359,-54.27349
2018-06-20 10:00:00+00:00,206.0,210.0,1.3,1.35,,47.59359,-54.27349
2018-06-20 10:10:00+00:00,208.0,208.0,1.2,1.25,,47.59359,-54.27349
2018-06-20 10:20:00+00:00,202.0,204.0,1.25,1.33,,47.59359,-54.27349
2018-06-20 10:30:00+00:00,198.0,198.0,1.38,1.45,,47.59359,-54.27349
2018-06-20 10:40:00+00:00,202.0,207.0,1.43,1.54,,47.59359,-54.27349
2018-06-20 10:50:00+00:00,185.0,187.0,1.76,1.82,,47.59359,-54.27349
2018-06-20 11:00:00+00:00,202.0,205.0,1.99,2.23,,47.59359,-54.27349
2018-06-20 11:10:00+00:00,195.0,196.0,2.3,2.41,,47.59359,-54.27349
2018-06-20 11:20:00+00:00,214.0,216.0,2.12,2.17,,47.59359,-54.27349
2018-06-20 11:30:00+00:00,222.0,222.0,2.08,2.13,,47.59359,-54.27349
2018-06-20 11:40:00+00:00,228.0,228.0,2.11,2.26,,47.59359,-54.27349
2018-06-20 11:50:00+00:00,219.0,221.0,2.96,3.15,,47.59359,-54.27349
2018-06-20 12:00:00+00:00,205.0,205.0,3.74,3.94,,47.59359,-54.27349
2018-06-20 12:10:00+00:00,196.0,198.0,3.93,4.05,,47.59359,-54.27349
2018-06-20 12:20:00+00:00,196.0,197.0,3.0,3.09,,47.59359,-54.27349
2018-06-20 12:30:00+00:00,180.0,182.0,2.81,2.9,,47.59359,-54.27349
2018-06-20 12:40:00+00:00,189.0,189.0,2.66,2.76,,47.59359,-54.27349
2018-06-20 12:50:00+00:00,191.0,192.0,3.08,3.19,,47.59359,-54.27349
2018-06-20 13:00:00+00:00,212.0,207.0,2.02,2.13,,47.59359,-54.27349
2018-06-20 13:10:00+00:00,210.0,213.0,2.01,2.09,,47.59359,-54.27349
2018-06-20 13:20:00+00:00,244.0,246.0,1.32,1.53,,47.59359,-54.27349
2018-06-20 13:30:00+00:00,227.0,217.0,0.89,1.33,,47.59359,-54.27349
2018-06-20 13:40:00+00:00,226.0,223.0,2.06,2.42,,47.59359,-54.27349
2018-06-20 13:50:00+00:00,229.0,230.0,3.75,3.94,,47.59359,-54.27349
2018-06-20 14:00:00+00:00,221.0,223.0,4.64,4.97,,47.59359,-54.27349
2018-06-20 14:10:00+00:00,221.0,222.0,6.07,6.41,,47.59359,-54.27349
2018-06-20 14:20:00+00:00,219.0,219.0,5.89,6.22,,47.59359,-54.27349
2018-06-20 14:30:00+00:00,227.0,227.0,5.37,5.89,,47.59359,-54.27349
2018-06-20 14:40:00+00:00,225.0,225.0,6.89,7.35,,47.59359,-54.27349
2018-06-20 14:50:00+00:00,222.0,218.0,6.63,7.28,,47.59359,-54.27349
2018-06-20 15:00:00+00:00,230.0,232.0,6.95,8.25,,47.59359,-54.27349
2018-06-20 15:10:00+00:00,229.0,231.0,9.17,10.48,,47.59359,-54.27349
2018-06-20 15:20:00+00:00,228.0,231.0,9.28,10.52,,47.59359,-54.27349
2018-06-20 15:30:00+00:00,224.0,224.0,8.33,9.56,,47.59359,-54.27349
2018-06-20 15:40:00+00:00,233.0,235.0,8.98,10.37,,47.59359,-54.27349
2018-06-20 15:50:00+00:00,232.0,232.0,9.57,10.75,,47.59359,-54.27349
2018-06-20 16:00:00+00:00,228.0,227.0,8.47,10.32,,47.59359,-54.27349
2018-06-20 16:10:00+00:00,223.0,225.0,8.91,9.68,,47.59359,-54.27349
2018-06-20 16:20:00+00:00,216.0,223.0,7.72,8.49,,47.59359,-54.27349
2018-06-20 16:30:00+00:00,216.0,213.0,7.03,7.49,,47.59359,-54.27349
2018-06-20 16:40:00+00:00,219.0,220.0,7.1,7.74,,47.59359,-54.27349
2018-06-20 16:50:00+00:00,220.0,222.0,8.72,9.9,,47.59359,-54.27349
2018-06-20 17:00:00+00:00,223.0,225.0,9.7,10.67,,47.59359,-54.27349
2018-06-20 17:10:00+00:00,217.0,219.0,8.43,9.53,,47.59359,-54.27349
2018-06-20 17:20:00+00:00,225.0,226.0,8.68,10.25,,47.59359,-54.27349
2018-06-20 17:30:00+00:00,230.0,231.0,10.45,11.57,,47.59359,-54.27349
2018-06-20 17:40:00+00:00,225.0,224.0,9.78,10.88,,47.59359,-54.27349
2018-06-20 17:50:00+00:00,223.0,224.0,8.41,10.27,,47.59359,-54.27349
2018-06-20 18:00:00+00:00,231.0,233.0,9.06,10.32,,47.59359,-54.27349
2018-06-20 18:10:00+00:00,230.0,225.0,8.55,9.66,,47.59359,-54.27349
2018-06-20 18:20:00+00:00,223.0,221.0,10.32,11.36,,47.59359,-54.27349
2018-06-20 18:30:00+00:00,217.0,218.0,9.44,10.62,,47.59359,-54.27349
2018-06-20 18:40:00+00:00,215.0,213.0,8.95,9.77,,47.59359,-54.27349
2018-06-20 18:50:00+00:00,218.0,218.0,9.11,10.83,,47.59359,-54.27349
2018-06-20 19:00:00+00:00,226.0,229.0,9.08,10.41,,47.59359,-54.27349
2018-06-20 19:10:00+00:00,221.0,222.0,10.11,11.07,,47.59359,-54.27349
2018-06-20 19:20:00+00:00,217.0,218.0,9.81,10.84,,47.59359,-54.27349
2018-06-20 19:30:00+00:00,217.0,220.0,9.52,10.26,,47.59359,-54.27349
2018-06-20 19:40:00+00:00,216.0,216.0,9.06,9.95,,47.59359,-54.27349
2018-06-20 19:50:00+00:00,219.0,217.0,9.26,10.1,,47.59359,-54.27349
2018-06-20 20:00:00+00:00,219.0,218.0,9.56,10.57,,47.59359,-54.27349
2018-06-20 20:10:00+00:00,216.0,219.0,9.38,10.3,,47.59359,-54.27349
2018-06-20 20:20:00+00:00,218.0,221.0,8.59,9.57,,47.59359,-54.27349
2018-06-20 20:30:00+00:00,215.0,216.0,8.8,9.86,,47.59359,-54.27349
2018-06-20 20:40:00+00:00,210.0,210.0,8.02,8.91,,47.59359,-54.27349
2018-06-20 20:50:00+00:00,206.0,205.0,7.11,8.09,,47.59359,-54.27349
2018-06-20 21:00:00+00:00,219.0,221.0,8.58,9.41,,47.59359,-54.27349
2018-06-20 21:10:00+00:00,215.0,216.0,8.26,9.43,,47.59359,-54.27349
2018-06-20 21:20:00+00:00,217.0,217.0,8.38,9.2,,47.59359,-54.27349
2018-06-20 21:30:00+00:00,213.0,214.0,9.99,10.71,,47.59359,-54.27349
2018-06-20 21:40:00+00:00,216.0,218.0,9.64,10.99,,47.59359,-54.27349
2018-06-20 21:50:00+00:00,215.0,214.0,10.56,11.1,,47.59359,-54.27349
2018-06-20 22:00:00+00:00,215.0,215.0,9.68,10.0,,47.59359,-54.27349
2018-06-20 22:10:00+00:00,214.0,214.0,9.85,10.46,,47.59359,-54.27349
2018-06-20 22:20:00+00:00,210.0,211.0,10.54,11.07,,47.59359,-54.27349
2018-06-20 22:30:00+00:00,210.0,212.0,8.97,9.37,,47.59359,-54.27349
2018-06-20 22:40:00+00:00,208.0,208.0,8.28,8.66,,47.59359,-54.27349
2018-06-20 22:50:00+00:00,216.0,216.0,8.41,8.83,,47.59359,-54.27349
2018-06-20 23:00:00+00:00,221.0,220.0,8.51,9.07,,47.59359,-54.27349
2018-06-20 23:10:00+00:00,222.0,223.0,10.23,11.45,,47.59359,-54.27349
2018-06-20 23:20:00+00:00,224.0,226.0,10.4,11.27,,47.59359,-54.27349
2018-06-20 23:30:00+00:00,230.0,231.0,9.68,10.61,,47.59359,-54.27349
2018-06-20 23:40:00+00:00,232.0,235.0,9.2,10.66,,47.59359,-54.27349
2018-06-20 23:50:00+00:00,230.0,231.0,9.62,10.86,,47.59359,-54.27349
